Location: Wanzleben
(52.0609°N, 11.4408°E)
Time: 02:57:03
(UTC+00:00)

Cosmos 1655 Rocket - Pass Details

Date: 18 September 2020
Orbit: 971 x 1006 km, 82.9° (Epoch: 22 October)

Event Time Altitude Azimuth Distance (km) Brightness Sun altitude
Rises 21:03:29 0° 347° (NNW) 3,686 8.0 -30.4°
Reaches altitude 10° 21:06:02 10° 344° (NNW) 2,737 7.1 -30.7°
Maximum altitude 21:12:08 58° 267° (W) 1,142 4.4 -31.2°
Enters shadow 21:12:31 57° 252° (WSW) 1,153 4.3 -31.2°
